Theta_e
304 304 304 304 304 304 305 305 306 306 306 306 306 306 307 307 308 309 311 317 324 322 320 322 322 322 321 320 317 316 316 316 318 322 328 328 320 324 325 326 328 326 323 322 325 331 332 333 337 337 339 342 345 347 344 342 342 340 344 343 333 333 336 340 346 351 347 344 346 344 343 343 343 343 342 344 345 345 344 343 345 346 347 348 349 349 352 356
303 303 304 304 304 304 305 305 305 306 306 306 306 306 306 307 307 308 309 318 324 319 319 320 318 318 316 316 315 316 318 319 324 327 329 322 320 324 325 327 327 326 324 321 327 333 332 332 336 337 338 342 343 344 342 340 340 341 345 341 335 336 340 342 343 346 345 344 346 345 344 343 344 345 344 346 348 346 345 346 348 349 349 348 349 350 354 357
303 303 304 304 304 304 304 305 305 305 306 306 306 306 306 307 307 308 308 318 324 318 318 318 315 315 314 315 316 317 321 326 331 333 327 320 322 321 323 327 325 326 325 321 325 331 331 331 334 334 337 341 340 338 337 336 338 339 340 337 335 337 340 343 345 343 343 345 346 345 344 345 344 345 346 348 349 347 349 351 352 351 350 348 350 350 352 356
303 303 304 304 304 304 305 305 305 305 306 306 306 306 306 306 307 307 308 317 323 317 316 316 314 315 315 316 316 321 325 332 334 329 327 326 325 319 321 326 326 325 324 322 324 328 329 331 333 333 334 338 338 335 333 335 338 336 335 335 336 338 339 342 344 343 343 343 345 346 345 345 345 345 345 349 353 351 351 351 351 350 349 349 350 351 352 354
303 303 303 304 304 304 305 305 305 305 305 305 306 306 307 306 306 307 307 316 322 316 315 316 315 315 315 317 318 323 330 334 331 330 330 331 326 321 320 324 326 323 321 321 325 329 329 330 333 333 333 336 338 335 333 334 333 332 333 335 337 338 340 341 342 343 343 343 345 344 344 345 345 347 347 352 357 353 351 350 350 349 349 349 348 349 350 351
303 303 303 304 304 304 304 305 305 305 305 305 306 306 307 306 306 307 307 315 321 316 315 316 316 315 315 319 320 323 332 329 328 330 327 330 326 323 321 322 325 322 320 324 328 330 330 333 334 332 331 335 338 336 334 332 332 332 334 337 339 339 340 339 340 342 341 342 344 343 345 346 346 348 347 350 354 350 349 349 349 348 348 348 347 348 349 350
303 303 303 303 304 304 304 305 305 305 305 305 306 306 306 307 306 307 306 312 320 316 315 316 315 315 314 322 325 327 334 329 324 325 325 328 326 324 323 322 324 320 322 328 331 329 330 334 333 331 331 333 337 336 334 332 332 333 333 336 338 338 339 339 339 341 341 342 344 345 346 349 350 350 349 348 350 348 349 349 348 348 348 347 347 347 348 348
303 303 303 303 303 304 304 304 305 305 305 305 306 305 306 307 306 308 306 311 320 316 315 316 315 316 314 321 330 331 332 329 323 324 327 327 326 326 324 325 323 320 325 330 331 329 330 333 332 331 331 334 335 333 333 331 333 335 334 335 336 338 339 339 339 340 341 342 344 347 348 349 351 353 351 349 350 349 350 349 348 348 346 346 347 347 351 351
303 303 303 303 303 304 304 304 305 305 305 305 306 306 306 306 306 308 307 312 320 316 315 316 314 315 315 321 330 327 327 328 324 328 328 326 325 325 325 325 322 320 325 329 330 329 330 331 332 331 331 334 335 332 332 330 332 335 335 335 335 337 338 338 339 340 341 342 343 346 348 349 349 351 353 351 350 350 350 349 348 349 347 347 347 349 354 353
303 303 303 303 303 304 304 304 305 305 305 305 305 306 306 306 307 307 307 315 320 317 316 315 314 315 318 325 330 324 328 329 328 330 326 324 324 324 324 324 321 322 325 327 329 329 330 331 331 331 331 333 333 332 331 330 332 335 335 336 335 337 338 336 337 338 340 341 343 345 347 349 348 351 355 352 350 350 350 350 349 349 348 347 348 351 352 349
303 303 303 303 304 304 304 304 305 305 305 305 306 306 306 306 307 307 310 318 320 317 316 314 313 315 320 329 329 325 328 330 331 330 326 324 323 321 322 325 324 324 325 326 327 328 330 331 331 330 332 333 331 331 331 331 334 334 335 336 336 337 336 336 337 338 340 341 343 345 346 347 346 350 355 352 349 350 350 351 350 350 351 351 351 354 354 349
303 303 303 303 303 304 304 304 304 305 305 306 306 306 307 306 307 308 313 321 320 317 317 315 314 318 325 331 328 327 322 329 333 330 329 324 323 320 320 326 326 324 326 326 326 328 329 330 331 329 330 333 331 329 331 333 335 336 337 337 337 337 336 336 337 337 339 341 342 344 343 346 349 348 351 352 350 351 350 351 351 350 353 354 353 354 356 353
303 303 303 303 303 304 304 304 305 305 305 306 306 306 307 307 307 309 317 323 320 318 317 315 316 322 330 333 328 322 317 326 329 329 330 325 324 321 320 325 326 326 327 327 327 328 329 329 329 328 330 333 330 330 333 333 335 336 337 337 337 336 334 337 338 338 340 341 342 343 339 342 350 347 347 350 349 350 351 351 351 350 351 354 354 353 357 354
303 303 303 303 303 304 304 304 305 305 306 306 307 307 307 307 307 310 318 323 320 319 318 319 321 326 333 334 324 320 320 323 325 327 330 326 324 321 322 325 325 327 326 326 327 327 328 328 329 329 332 333 332 332 332 332 335 338 335 335 338 328 329 340 339 338 341 341 342 343 335 341 351 348 346 347 347 349 351 351 352 351 351 352 355 355 359 357
303 303 303 303 303 303 304 304 305 305 306 306 307 308 307 307 308 313 320 323 321 319 319 323 326 329 336 334 327 327 326 325 326 329 330 329 325 322 323 324 324 326 325 325 326 326 328 327 329 331 332 334 333 331 331 334 336 339 331 325 332 326 328 342 340 339 341 340 341 343 336 342 351 349 347 347 346 347 348 349 351 351 352 352 355 357 358 358
303 303 303 303 303 303 304 304 305 305 305 306 307 308 308 308 310 317 323 325 323 320 320 326 328 329 335 336 332 332 329 330 330 330 331 331 327 324 323 323 324 325 325 326 325 327 327 326 329 332 334 334 332 332 330 329 329 337 334 321 324 325 328 338 340 340 341 340 341 343 340 344 349 349 347 347 345 345 346 347 349 351 352 352 353 354 355 357
303 303 303 303 303 303 304 304 305 305 306 306 307 309 309 310 316 322 326 325 323 321 321 326 329 329 335 336 333 333 330 329 327 328 330 329 329 326 323 323 324 324 325 326 325 327 326 326 331 333 335 333 333 332 324 318 318 329 334 326 325 328 327 329 336 340 340 341 342 343 345 345 347 349 347 346 346 346 347 346 348 350 352 352 351 353 356 356
303 303 303 303 303 303 304 304 305 305 306 306 308 309 309 315 323 327 328 326 324 325 326 329 329 329 333 334 334 334 331 329 326 326 327 328 329 327 324 323 324 325 325 325 325 326 327 329 333 335 335 332 333 331 319 316 321 323 326 324 325 329 329 328 333 339 340 340 340 342 345 346 347 349 348 346 346 346 349 349 349 351 352 351 352 356 358 356
303 303 303 303 303 304 304 304 305 305 305 307 308 308 313 326 331 330 329 330 332 337 338 335 333 331 328 332 335 332 332 331 326 325 325 327 328 327 326 324 325 326 324 325 324 325 329 333 333 332 332 331 332 330 325 327 330 330 330 328 324 325 328 334 337 338 339 339 339 342 343 346 348 348 348 347 346 346 350 351 351 352 352 351 354 357 357 356
303 303 303 303 303 303 304 304 305 305 305 306 308 312 320 330 334 333 332 333 336 340 335 333 335 330 326 329 332 331 332 328 324 324 326 327 328 328 326 324 325 325 323 325 326 327 331 333 331 330 331 332 331 330 331 333 334 336 334 330 329 326 326 337 340 337 339 337 338 345 345 346 348 346 348 347 346 348 349 350 351 353 354 353 355 355 355 357
303 303 303 303 303 303 304 305 305 305 305 305 310 318 324 323 325 329 331 331 334 336 334 333 334 330 329 330 330 332 328 324 324 325 326 328 329 327 325 325 324 323 324 324 326 331 331 329 330 332 332 332 331 331 331 332 334 335 332 327 326 326 328 338 341 337 338 337 338 347 345 344 347 344 345 345 345 347 347 348 351 353 356 356 357 356 355 357
303 303 303 303 303 303 303 305 305 305 307 312 316 323 325 322 324 326 325 324 328 330 331 332 331 330 330 330 332 331 327 325 326 326 327 327 327 326 324 324 323 323 324 324 326 329 329 327 330 332 333 331 330 332 331 332 333 332 331 326 322 327 331 335 339 337 336 335 338 346 344 343 346 344 344 345 345 346 345 348 350 352 356 358 358 357 356 357
303 303 303 303 303 302 304 305 305 310 315 319 322 326 326 325 324 325 326 327 328 328 329 330 330 329 328 328 331 329 327 328 327 327 327 326 325 325 324 322 322 323 323 323 324 324 321 326 331 332 331 331 331 331 330 331 331 330 329 322 319 328 328 324 332 339 337 336 339 344 343 344 348 346 345 344 344 345 345 346 348 350 355 357 356 357 356 357
303 303 303 303 302 303 304 303 308 317 317 316 320 323 322 322 322 324 327 328 329 329 328 329 329 328 327 328 330 328 328 328 327 327 326 325 325 324 323 322 322 322 322 323 324 324 324 328 331 331 331 332 330 329 330 328 326 329 330 324 321 328 329 326 333 338 335 336 340 342 338 340 348 350 347 345 344 345 345 346 348 350 353 354 354 355 356 357
303 303 303 303 303 303 302 306 315 317 311 311 315 318 318 319 320 323 326 328 329 330 329 330 329 328 328 329 329 328 327 327 327 327 326 325 325 326 324 322 322 322 323 324 324 325 327 330 331 330 331 331 329 329 329 327 322 323 329 330 329 330 332 333 336 333 326 326 336 340 330 333 346 349 350 348 346 346 347 348 349 351 352 352 353 353 355 357
303 303 303 302 303 303 303 311 316 310 308 312 313 315 317 318 319 320 325 328 327 329 331 331 328 327 328 329 330 328 327 328 328 327 327 325 325 327 325 323 323 322 324 325 325 324 327 330 330 330 330 330 329 327 328 330 321 316 327 334 333 332 331 332 332 327 319 321 336 339 332 333 341 342 351 356 356 355 350 348 349 351 351 350 351 351 353 357
303 303 302 302 303 303 306 310 309 309 312 314 312 315 318 319 320 320 327 329 328 332 331 327 324 326 328 328 329 328 326 327 329 328 326 325 326 327 325 324 324 323 325 325 320 322 327 330 329 330 330 329 327 325 328 332 321 318 331 334 333 332 329 331 331 325 324 328 334 335 336 337 334 337 354 365 365 366 360 355 352 350 350 350 349 349 353 357
303 303 302 303 303 303 306 308 309 313 315 311 314 319 321 321 322 322 326 327 333 332 328 325 324 326 327 328 329 328 327 327 327 327 325 325 325 325 324 325 324 323 326 324 316 322 329 329 329 331 329 327 327 327 330 332 325 325 332 331 333 332 330 334 330 325 327 325 322 326 335 339 335 339 356 366 359 361 364 360 357 352 349 349 348 348 352 357
303 303 303 304 302 304 312 312 311 316 313 313 317 319 320 321 323 323 326 330 334 326 327 325 324 326 325 328 329 328 329 328 326 327 326 324 324 324 324 324 325 325 325 324 321 325 328 328 329 330 328 328 329 331 332 330 330 330 331 331 332 332 331 332 331 327 325 323 320 322 324 330 334 339 349 356 351 351 357 357 356 355 350 348 349 347 350 356
303 303 303 304 304 307 313 312 314 313 311 315 315 314 316 320 323 325 326 333 331 324 326 323 324 326 324 327 328 328 329 328 327 327 325 324 323 324 324 325 326 325 326 326 326 327 328 329 331 331 330 330 330 331 331 330 333 331 331 331 328 332 338 338 341 333 320 321 325 323 318 321 328 336 343 348 351 350 353 354 355 355 350 349 349 346 349 354
303 304 304 306 306 307 308 310 310 310 313 313 311 311 315 321 325 323 326 332 326 325 326 323 325 326 325 327 327 328 329 327 327 327 325 325 324 323 324 325 325 324 324 324 324 327 328 328 331 331 331 331 330 330 331 332 332 331 332 328 322 327 332 329 333 329 317 319 325 322 320 318 320 334 347 350 353 351 352 353 352 352 350 350 350 347 348 351
303 304 305 306 307 307 308 310 307 309 310 308 309 312 316 323 324 321 325 326 322 325 326 325 327 326 326 327 327 328 328 328 327 327 326 325 325 325 323 324 324 320 315 316 320 323 325 328 329 330 331 330 329 327 328 331 331 331 328 322 317 318 320 318 319 321 319 322 325 321 321 318 320 337 351 353 353 350 351 350 349 350 350 351 352 350 349 349
304 304 305 306 308 308 308 306 306 307 307 309 314 316 316 321 324 321 322 323 321 325 326 327 327 326 327 327 328 330 328 328 328 326 328 326 326 325 323 326 327 322 317 316 315 315 318 326 329 328 329 329 330 324 320 324 327 328 323 317 318 319 317 317 317 317 320 321 322 321 321 318 321 339 352 353 351 349 350 348 348 350 351 352 352 350 348 349
304 305 306 307 309 309 306 306 308 309 312 317 319 319 316 319 324 322 322 324 324 326 327 328 327 326 328 327 328 330 327 327 327 326 328 326 325 324 323 325 326 326 325 318 315 313 313 318 325 326 326 328 331 328 324 327 327 328 328 326 323 321 318 319 319 317 319 319 318 320 320 316 320 339 354 351 349 350 349 348 349 350 351 350 350 350 349 348
304 304 308 310 310 307 306 308 310 313 317 321 320 318 317 317 320 320 323 326 326 329 329 329 329 325 325 327 328 329 326 324 326 327 327 325 323 323 324 325 326 328 325 317 316 316 311 314 325 328 328 329 330 329 331 329 324 327 331 324 321 326 325 319 320 319 317 318 319 318 320 325 334 351 357 348 347 350 347 349 352 352 351 349 349 351 350 349
306 307 311 315 315 311 310 311 314 317 320 323 320 317 316 318 321 322 324 326 326 330 329 327 327 321 318 323 326 328 326 324 326 325 325 326 325 324 325 326 326 327 326 320 319 318 310 314 327 329 329 331 330 330 332 327 323 327 326 320 324 334 330 319 317 319 316 317 319 316 318 327 334 343 350 348 347 348 348 349 349 350 351 350 352 353 350 349
310 313 316 319 317 315 317 318 319 319 321 325 322 318 317 319 323 323 324 325 325 328 325 320 322 320 315 316 322 327 325 322 325 323 321 323 323 324 326 326 326 327 327 325 322 323 317 314 327 332 328 331 330 329 331 330 330 325 319 323 332 329 329 328 320 317 317 317 318 315 315 320 321 327 343 350 348 349 348 348 347 348 350 349 351 353 352 348
311 315 318 321 318 317 320 321 321 321 322 325 324 322 320 319 322 323 323 324 323 324 324 318 321 324 318 315 318 326 324 318 321 323 320 321 321 323 326 326 326 326 327 327 324 326 323 314 322 332 330 330 331 328 326 329 332 330 324 329 330 319 319 323 319 318 320 318 318 318 317 318 319 325 338 345 346 348 346 347 346 345 349 350 349 352 353 349
313 317 321 323 318 320 322 322 321 322 323 324 323 322 320 319 321 322 322 323 322 323 324 321 324 326 322 320 320 325 325 319 320 322 319 321 321 324 327 326 325 326 326 328 326 327 327 317 316 329 331 330 331 325 320 323 329 331 330 331 329 322 320 322 320 321 322 319 320 320 317 320 329 334 338 342 345 345 346 350 348 342 346 348 346 351 353 353
316 317 317 317 318 322 324 323 322 324 323 322 320 319 318 319 321 321 322 323 323 323 324 324 326 325 325 326 324 325 326 322 324 322 320 323 322 322 327 325 325 326 326 327 327 326 329 322 316 327 330 325 324 324 322 323 327 325 322 322 322 322 323 323 322 320 321 320 320 320 319 324 340 346 345 348 347 345 349 352 349 344 344 345 346 352 355 358
317 318 317 319 323 324 325 323 322 324 323 322 320 317 318 319 320 322 322 323 323 324 324 324 325 326 327 327 325 327 327 325 325 324 323 325 321 321 325 326 326 326 325 327 326 325 326 326 319 319 319 317 320 329 331 329 329 327 324 321 321 323 321 318 320 319 318 319 321 323 320 324 343 351 349 349 344 342 349 351 347 344 342 346 353 356 355 359
317 320 320 319 323 324 324 322 322 324 322 322 320 317 318 320 320 321 322 322 323 324 324 324 325 327 328 327 328 329 329 326 325 323 324 325 325 325 325 326 327 325 326 325 324 327 330 329 322 316 318 323 326 330 330 329 332 330 329 328 327 328 321 313 318 322 317 316 322 322 318 326 346 351 347 348 343 341 348 348 345 343 341 345 353 356 358 361
316 317 317 313 316 322 326 325 324 325 322 321 321 319 318 320 320 320 321 322 323 324 324 325 326 327 328 328 330 331 330 328 327 326 325 326 327 327 326 327 326 326 327 324 323 331 333 331 323 317 321 326 330 332 329 330 332 326 326 331 326 327 324 318 327 333 323 316 319 319 316 327 350 354 347 350 347 340 342 344 345 347 343 344 349 356 362 366
314 314 316 314 312 319 326 327 327 325 324 322 320 320 320 319 320 320 321 321 323 323 324 326 327 327 328 328 329 331 329 326 327 328 327 327 328 328 327 326 326 327 326 326 327 326 327 329 323 317 319 320 320 325 325 325 327 325 327 331 327 329 328 324 329 333 324 319 321 322 320 329 350 357 347 343 342 338 339 338 342 346 345 347 353 359 369 374
315 316 318 320 318 317 321 325 326 325 324 324 322 321 320 320 321 321 321 322 322 323 323 325 327 327 328 328 327 330 330 325 326 329 329 329 327 328 327 325 327 327 325 335 341 327 329 335 326 318 318 319 319 322 323 322 324 326 329 329 329 330 326 325 322 319 320 323 323 324 324 331 347 353 344 342 343 343 341 337 342 350 351 354 358 360 373 384
317 320 322 322 321 318 317 321 323 324 324 324 324 324 322 321 321 321 321 322 321 322 322 323 326 327 327 329 327 328 329 328 328 330 333 333 331 329 329 327 327 327 335 353 350 329 331 338 337 332 325 325 332 338 338 331 322 320 323 325 329 329 327 330 320 315 326 330 324 330 334 330 339 350 344 346 348 346 347 347 351 357 354 355 361 360 367 382
318 323 322 318 319 320 320 320 321 322 323 323 324 323 323 323 323 323 323 323 321 322 323 323 327 328 326 329 328 326 327 329 329 332 336 339 339 335 333 329 327 335 353 361 349 337 335 330 337 346 336 334 345 344 335 332 324 319 322 323 327 328 328 326 317 323 340 328 318 334 343 329 335 349 345 347 351 348 352 353 355 360 357 358 366 365 364 375
321 322 317 315 317 320 319 319 319 319 320 323 324 322 321 322 325 326 325 325 324 323 323 326 327 328 328 329 327 326 328 329 330 337 342 341 340 338 335 332 331 346 357 347 337 340 338 327 331 339 335 337 341 333 330 333 328 326 327 323 325 327 326 321 320 335 347 327 321 339 343 333 339 345 344 349 354 350 349 350 350 355 358 359 364 366 365 368
320 317 314 314 314 316 316 316 317 318 320 325 328 326 322 321 323 326 326 328 327 324 324 327 326 325 327 328 327 332 337 335 333 342 346 340 338 339 337 334 337 346 344 332 335 338 332 329 333 330 326 330 332 329 331 330 326 327 328 328 329 327 326 325 325 334 341 337 342 350 346 346 346 341 341 348 352 351 348 347 349 352 355 357 361 363 361 359
317 316 314 313 313 314 316 317 318 319 320 324 329 328 325 323 322 324 326 327 328 328 326 325 326 327 326 327 330 336 340 339 337 341 342 339 340 342 340 337 336 339 333 328 336 336 329 331 339 330 322 324 329 330 329 328 327 323 323 330 332 328 328 328 326 329 330 334 347 351 344 347 348 341 343 348 351 352 347 346 352 355 353 352 353 354 352 350
315 315 313 312 314 317 318 319 320 320 320 322 328 328 326 327 325 324 326 327 328 330 329 326 327 326 323 327 335 336 336 337 337 336 334 336 338 338 336 335 333 334 334 331 334 336 334 333 336 329 319 319 326 326 326 327 325 319 319 326 328 326 327 328 328 333 329 326 336 339 334 342 352 348 345 350 352 351 351 354 358 361 360 359 357 357 357 357
313 315 314 313 316 318 318 320 322 324 323 322 325 326 325 327 328 327 329 331 329 328 328 328 329 329 330 335 337 335 333 333 334 333 332 333 333 331 333 333 332 334 337 334 334 339 339 334 332 328 319 318 324 324 324 323 318 315 320 326 328 329 330 330 332 336 337 332 335 336 338 349 356 349 343 349 351 352 354 356 358 363 363 359 358 359 359 356
Wind_Speed
25 26 26 26 27 27 28 28 29 29 30 31 31 31 32 31 31 30 31 30 29 28 26 25 22 20 17 15 16 16 17 15 14 9 11 21 20 13 15 14 8 5 5 8 9 8 9 10 13 17 12 7 4 4 8 8 6 5 4 4 5 4 5 7 8 6 5 7 6 7 10 10 10 9 7 8 9 10 10 12 14 14 15 17 22 28 30 33
25 26 26 26 27 27 28 28 29 29 29 30 31 32 32 32 31 31 31 30 28 26 24 22 19 18 16 15 13 12 14 14 13 12 21 30 25 18 17 15 10 8 6 8 10 9 8 8 10 11 7 4 5 7 9 7 5 4 2 3 2 5 10 8 7 5 5 9 7 7 10 10 10 10 7 7 7 7 11 14 16 18 18 19 23 25 28 30
25 26 26 26 27 27 28 28 28 29 29 30 30 31 32 32 31 31 31 29 26 23 21 19 17 16 14 13 10 9 12 10 7 13 23 23 23 25 20 16 13 10 9 10 10 11 12 12 13 10 6 5 6 7 7 3 2 4 2 2 2 10 13 12 9 5 6 9 9 8 9 9 8 8 6 8 8 7 11 13 16 18 17 17 18 21 24 24
25 26 26 27 27 27 28 28 29 29 29 30 30 31 32 32 31 31 30 28 24 21 18 17 16 14 13 11 7 9 9 6 4 9 14 12 13 21 23 19 15 11 10 11 11 14 17 17 16 12 7 5 6 6 6 3 2 2 2 3 7 10 11 15 15 8 6 8 10 9 9 8 5 5 7 10 8 8 11 14 16 18 18 17 16 19 21 21
25 26 27 27 27 27 28 28 29 29 30 30 30 30 31 32 32 31 30 28 23 18 16 15 15 13 11 8 6 9 6 3 2 1 11 9 9 17 23 21 15 11 10 11 11 13 17 15 12 11 7 4 6 5 6 7 3 1 1 7 9 9 9 13 15 10 8 10 11 9 8 7 6 7 8 10 7 5 11 15 17 18 17 17 15 16 18 18
25 26 27 28 28 28 28 29 29 30 30 30 30 30 31 31 32 31 30 27 21 17 15 14 15 13 9 6 6 7 1 2 6 9 16 8 7 13 19 19 15 11 9 11 11 11 12 10 8 8 6 5 7 7 6 5 4 1 3 10 11 11 10 9 11 10 9 12 11 9 10 8 8 7 7 9 4 5 15 18 18 16 17 19 16 14 15 15
26 27 27 28 28 29 29 29 30 30 31 30 31 31 30 31 31 31 30 26 20 16 14 14 15 13 8 5 5 4 1 7 16 18 15 4 7 11 15 16 15 12 10 10 10 9 8 8 8 7 6 7 9 9 9 5 6 5 2 7 11 11 11 8 9 9 8 13 12 11 11 9 9 6 5 7 5 11 19 18 17 17 18 19 14 12 14 14
26 27 28 28 29 29 29 29 30 31 31 31 31 31 31 31 31 31 31 26 19 15 14 14 14 12 7 4 3 3 3 13 22 18 10 2 8 11 14 15 15 14 13 13 11 9 7 8 9 8 7 8 10 8 7 3 4 6 3 5 9 10 10 9 9 12 12 12 12 12 11 10 10 6 6 9 9 16 18 17 18 17 16 14 11 11 12 11
27 28 28 29 29 29 29 30 31 31 32 32 32 32 32 32 31 31 31 24 16 14 13 13 13 9 5 3 2 3 6 17 21 16 10 6 10 13 15 15 15 16 14 15 15 11 8 7 9 9 8 9 10 7 3 3 3 5 8 5 6 11 11 10 11 14 13 9 10 12 11 11 10 7 8 9 12 16 17 17 16 15 14 12 11 10 10 9
27 28 29 29 30 29 30 30 31 32 32 33 33 32 32 32 31 31 30 22 14 13 12 11 10 5 2 3 3 3 7 9 11 15 12 9 12 15 17 15 16 18 13 12 15 13 9 9 11 9 9 9 8 4 5 5 2 5 9 5 5 10 9 10 14 15 13 11 11 11 11 11 9 6 6 7 11 14 16 16 15 14 13 12 11 11 11 10
27 29 30 30 30 30 30 30 31 32 33 33 34 33 32 33 32 31 26 18 11 11 10 9 6 3 2 3 2 5 9 6 10 13 9 11 16 18 20 17 17 20 14 11 14 16 14 14 15 9 6 7 6 3 3 5 7 6 8 7 6 8 8 12 16 15 12 11 12 12 11 11 9 6 6 8 10 12 14 15 14 13 11 11 13 11 9 9
27 29 30 31 31 31 31 31 31 32 34 34 34 34 33 33 33 28 22 15 9 9 8 5 2 1 2 4 6 14 15 4 4 8 9 12 15 18 21 19 18 20 16 11 12 19 20 21 19 10 7 6 3 3 2 5 8 8 7 7 5 6 9 12 13 14 12 10 13 12 9 8 8 9 9 9 10 11 12 12 12 12 10 10 12 10 8 9
28 29 30 31 32 32 32 32 32 32 34 35 35 35 33 34 33 25 18 13 8 8 6 1 2 2 3 3 12 22 22 12 10 9 12 13 12 16 19 18 18 20 19 15 15 20 23 23 19 11 10 8 3 2 3 5 8 9 6 5 4 4 6 11 12 15 13 11 16 10 5 6 8 11 12 10 11 11 11 10 10 10 9 10 11 10 8 9
29 30 31 31 32 32 32 32 32 33 34 36 36 35 34 35 32 22 16 13 9 6 5 2 2 2 1 7 16 21 22 20 22 18 13 15 13 15 16 16 18 20 21 21 21 21 21 23 18 10 8 7 4 3 2 2 6 7 6 4 5 3 4 10 11 13 11 11 17 10 4 6 8 11 12 11 12 12 10 10 9 9 9 10 10 9 7 7
29 31 32 32 32 32 33 33 33 33 34 36 36 36 35 36 30 19 14 11 8 5 4 2 2 2 2 9 17 15 12 17 23 19 13 16 15 13 15 17 18 20 20 20 21 21 22 21 12 5 7 9 7 4 2 2 3 4 5 3 3 3 4 9 8 9 9 10 14 9 5 6 8 11 12 11 12 12 10 10 10 10 10 10 9 9 7 7
30 31 32 33 32 32 33 33 33 34 35 35 36 36 35 35 27 17 13 10 7 4 4 2 5 6 3 6 11 9 10 13 16 14 12 16 16 13 17 18 17 19 19 19 20 19 20 15 6 4 6 8 6 4 1 2 1 2 5 3 3 5 4 6 7 8 10 8 8 11 7 5 8 10 12 12 12 12 11 10 11 11 11 11 9 9 8 7
31 32 33 33 33 33 33 33 34 35 35 35 37 37 35 32 22 13 7 6 5 4 6 5 3 4 6 8 10 8 10 14 15 14 14 18 18 17 18 14 12 14 15 17 18 15 13 8 3 3 4 5 5 3 2 2 2 2 4 3 3 5 4 5 7 9 12 8 6 12 9 7 9 11 11 12 12 11 10 11 12 11 11 10 9 9 8 8
32 33 33 33 33 33 33 33 33 34 36 36 36 37 34 25 13 4 3 3 2 3 6 9 5 1 6 9 9 8 10 15 17 17 17 18 20 21 18 11 8 9 9 9 11 9 6 4 2 2 4 4 5 4 4 5 6 6 6 4 2 2 4 6 5 8 13 9 6 8 9 11 11 11 10 11 12 10 9 9 10 10 10 10 10 9 8 8
32 33 33 34 33 34 33 32 33 34 36 36 35 34 27 14 4 3 4 3 3 1 4 4 5 3 5 8 11 13 14 13 17 17 18 19 22 21 17 12 8 7 7 4 6 7 4 2 2 3 5 5 7 7 6 8 11 13 11 7 6 5 6 7 6 8 11 8 7 7 10 13 12 11 11 10 11 11 9 8 7 7 9 9 8 9 9 8
33 34 34 34 33 34 34 32 33 33 35 37 33 24 13 5 3 1 2 3 6 7 10 7 9 9 11 12 9 13 16 13 14 14 18 20 19 15 11 10 7 6 6 4 6 7 4 3 4 5 7 9 11 12 10 10 13 16 14 10 11 9 8 10 9 9 10 7 7 10 13 14 12 11 11 11 10 11 11 9 8 8 8 8 8 9 10 8
33 34 33 34 34 34 34 33 32 32 36 34 23 9 4 6 5 5 4 6 9 11 14 14 12 14 17 16 15 13 10 10 11 12 18 21 16 10 8 8 8 6 6 7 6 5 5 5 6 8 10 13 12 12 12 10 10 12 12 10 10 9 9 13 12 10 11 7 6 11 14 13 12 11 11 10 10 12 13 11 10 10 8 7 8 10 10 8
34 33 34 35 33 34 34 33 32 33 32 21 8 2 6 10 11 15 13 8 11 12 14 17 17 17 19 21 25 21 8 7 10 11 17 20 13 8 8 8 8 6 6 8 5 4 6 6 8 11 12 13 13 12 11 11 10 8 7 8 8 8 8 12 14 12 11 5 6 12 12 10 12 12 11 11 9 10 13 13 12 12 10 8 8 9 10 9
34 33 35 34 34 36 32 33 32 27 20 10 6 8 11 16 20 24 17 6 12 15 12 15 16 15 16 17 24 22 10 9 9 10 17 17 11 8 10 9 9 7 8 9 7 5 5 6 10 13 13 14 14 13 11 9 9 8 6 5 6 10 9 8 11 13 12 6 8 13 9 8 10 9 10 12 10 8 12 15 14 13 12 11 9 9 10 10
34 33 34 34 36 34 32 35 27 15 16 18 18 18 17 21 23 21 11 3 10 13 13 17 15 12 15 16 19 16 10 10 9 10 16 15 10 8 9 10 10 8 8 11 12 9 6 7 11 13 14 15 14 12 11 8 6 7 9 6 6 12 12 10 11 13 10 6 10 12 5 4 8 8 8 9 10 9 11 14 14 13 13 13 11 10 12 11
34 34 33 34 35 34 35 29 14 13 24 24 22 20 21 22 24 22 9 3 7 9 13 15 10 11 19 19 17 11 9 9 10 10 14 15 12 7 7 8 7 8 10 13 13 10 8 9 11 14 14 14 12 10 11 8 5 6 9 8 5 6 5 11 15 12 7 5 10 12 5 3 6 9 9 7 9 9 9 12 13 14 14 13 12 12 13 13
36 34 33 34 34 36 32 13 9 23 26 18 18 21 24 22 25 23 8 3 5 7 9 9 8 11 18 14 10 9 9 8 10 12 16 17 15 8 6 6 4 8 11 11 9 6 8 11 13 14 13 14 13 9 10 10 6 5 6 8 6 5 4 8 16 11 6 5 9 14 7 3 5 8 9 7 7 9 9 11 13 13 14 13 12 12 13 14
36 33 33 33 32 34 22 8 18 24 13 13 20 24 23 21 23 18 4 2 6 6 7 6 7 13 16 10 9 9 6 6 9 12 15 19 17 8 7 7 5 8 8 7 7 5 8 13 14 15 14 12 10 8 9 10 7 6 6 6 5 7 9 11 16 9 6 6 8 13 9 4 5 8 8 8 7 6 7 9 10 12 15 15 13 13 14 15
36 35 34 31 31 29 18 16 19 13 10 16 22 22 21 20 19 10 1 2 5 3 5 4 4 11 12 10 13 9 4 7 9 10 15 22 19 8 7 9 8 10 10 7 6 7 10 13 15 16 13 9 7 8 11 10 7 7 7 6 6 9 10 9 13 7 6 7 6 8 8 4 3 6 6 7 8 8 9 10 9 10 15 15 13 13 15 16
37 36 33 32 33 24 11 13 12 9 14 19 20 23 23 20 13 2 1 3 5 2 2 2 2 7 6 9 15 11 7 8 7 8 14 21 20 10 6 9 9 11 13 10 7 8 10 12 14 15 12 8 7 9 11 8 6 6 8 7 6 7 7 3 7 5 4 5 5 7 9 4 2 5 6 6 7 10 11 10 8 8 12 14 14 14 15 15
39 37 33 33 32 20 9 14 20 14 15 17 20 26 23 15 5 2 3 4 4 2 3 1 1 7 8 10 13 12 11 9 6 9 12 13 17 12 5 7 9 8 10 11 10 9 10 12 12 11 9 9 10 12 12 8 6 4 7 7 7 6 2 2 4 5 4 1 6 6 7 6 3 5 8 8 12 15 12 10 9 9 12 14 14 14 14 14
40 37 34 32 30 20 9 14 19 10 10 16 23 22 14 5 1 3 4 3 5 3 5 2 4 10 11 10 10 11 13 10 7 11 11 9 12 10 5 6 7 5 6 8 9 12 12 11 9 7 7 11 12 13 12 9 7 6 6 4 3 4 3 4 3 4 3 4 6 3 4 5 4 5 10 14 17 18 14 13 14 14 14 15 14 13 13 14
41 37 34 32 30 24 16 18 18 12 13 20 19 11 4 1 3 5 5 4 4 5 7 6 8 10 12 12 10 11 12 10 9 10 11 10 8 9 8 6 4 4 5 6 7 9 11 9 8 7 7 10 12 10 8 7 6 6 6 2 3 1 2 2 3 2 1 5 5 3 6 7 5 7 16 20 17 18 17 15 16 15 13 12 11 11 12 13
41 37 33 29 24 25 27 25 23 19 17 16 9 3 2 2 4 7 8 6 4 5 5 8 13 12 12 12 10 12 12 9 11 11 12 12 8 9 11 11 8 6 5 6 7 7 7 9 9 10 7 6 8 6 5 5 5 5 5 3 4 3 1 1 1 0 3 5 6 8 8 6 5 5 17 23 19 18 17 14 15 16 14 12 11 12 11 14
41 36 32 26 22 26 28 26 23 16 9 6 3 2 4 5 5 8 11 10 10 9 8 5 12 13 13 11 9 11 10 9 13 11 12 12 8 8 11 14 15 10 4 6 7 6 7 7 8 9 6 6 8 6 6 6 6 6 7 5 4 4 3 3 3 3 5 5 7 11 7 4 6 5 12 21 17 13 14 13 14 14 13 12 11 12 11 12
39 33 29 25 23 25 24 23 21 12 3 2 2 3 6 6 5 8 10 11 11 11 14 15 10 13 11 9 10 12 9 8 13 12 11 12 9 8 9 11 16 12 6 5 5 6 7 6 9 11 8 12 12 9 8 8 6 5 7 7 5 5 4 3 4 5 5 5 4 6 4 4 5 4 6 15 14 13 15 14 13 12 12 11 9 11 11 10
39 35 25 19 22 21 17 16 15 13 7 3 2 5 7 6 7 8 8 9 10 9 13 15 10 10 8 7 9 13 11 8 12 11 8 11 11 10 10 9 13 14 9 6 3 5 6 4 9 14 10 12 15 12 11 9 5 4 6 6 5 5 4 4 5 5 4 5 3 3 3 1 0 3 4 15 16 15 15 13 13 14 14 13 10 10 11 11
39 31 17 18 24 20 15 12 15 16 8 2 4 6 7 8 11 12 10 10 13 12 11 9 4 4 7 8 7 11 13 10 10 8 6 10 11 11 13 11 13 16 13 9 4 4 6 4 4 14 10 10 13 13 14 10 5 4 5 6 3 5 4 4 1 3 4 4 3 4 6 4 3 1 5 14 17 15 14 14 15 15 13 13 10 8 11 13
32 19 13 21 22 16 19 17 19 15 4 3 7 8 7 10 13 15 14 13 15 15 12 8 5 5 6 9 8 11 13 9 8 7 7 8 8 12 14 11 14 17 16 13 7 4 7 4 4 13 13 10 11 11 12 10 8 6 6 8 8 4 5 3 1 2 4 3 3 4 4 3 4 5 8 12 15 14 12 12 15 14 12 12 11 10 12 13
21 7 8 16 7 12 24 24 18 8 3 4 7 6 7 11 14 16 15 14 14 13 12 10 8 9 9 7 8 11 12 11 9 7 7 6 6 14 17 10 12 18 18 15 8 5 6 4 4 12 15 10 8 8 7 6 7 6 4 4 7 5 3 4 4 4 4 3 2 3 3 2 3 7 12 11 12 13 10 9 11 12 11 12 13 11 10 11
10 2 8 11 8 24 27 22 11 4 4 6 7 7 8 11 13 16 17 15 12 8 9 12 11 10 10 8 7 8 11 12 10 7 7 8 7 12 18 13 11 17 21 19 12 7 6 4 3 8 13 10 5 7 8 5 5 5 4 4 5 4 3 2 3 3 5 3 2 2 2 4 5 5 11 11 11 12 10 9 9 8 8 9 11 11 9 8
6 3 6 1 20 30 22 11 5 4 5 6 7 9 11 10 11 14 16 17 13 10 12 15 14 12 10 9 7 4 5 10 11 8 7 10 10 8 13 16 12 14 18 17 13 9 5 4 4 5 9 7 5 9 11 9 6 5 4 4 5 5 5 3 4 3 3 4 4 4 1 4 5 2 7 9 11 11 10 10 8 7 7 7 9 10 10 9
4 3 7 6 9 21 13 3 5 4 5 7 8 11 12 10 12 13 14 15 14 12 14 14 15 15 11 8 6 6 4 5 10 11 7 10 13 9 11 18 17 14 13 11 12 11 6 4 4 5 7 7 8 13 15 12 10 6 5 6 5 4 4 4 3 4 3 3 4 4 3 3 6 3 8 7 9 10 10 11 9 7 7 8 9 9 9 9
3 7 17 25 14 12 7 3 5 5 6 8 10 14 13 11 12 12 12 14 12 11 11 10 12 13 10 8 7 7 7 5 6 10 10 11 14 14 16 21 20 15 12 9 9 11 8 4 3 2 5 8 9 11 16 16 11 7 7 8 7 5 4 4 5 4 4 5 4 3 3 4 6 2 7 7 9 10 9 9 8 6 7 8 10 9 8 8
4 7 13 20 16 10 7 5 5 5 7 10 13 15 13 12 13 13 13 13 11 10 10 10 12 10 7 7 7 7 6 4 6 7 8 9 11 17 20 22 22 16 10 8 8 8 7 5 4 2 2 6 7 6 9 13 11 6 5 7 9 11 11 8 5 1 2 5 6 5 3 5 4 3 7 8 10 10 8 8 8 7 8 8 9 9 9 9
6 4 5 11 12 8 6 5 6 6 7 10 13 14 13 12 12 14 15 15 14 13 11 11 10 9 9 9 10 9 7 5 7 5 4 6 8 15 20 23 23 16 12 15 14 8 5 5 5 5 4 6 7 6 5 8 7 4 5 7 9 14 14 9 4 2 3 6 6 5 3 4 4 6 8 8 9 9 8 8 7 6 7 8 8 8 8 9
4 3 3 5 5 4 5 7 9 8 8 9 9 10 14 13 11 14 15 15 16 16 15 14 11 9 11 12 11 10 9 8 9 6 4 5 3 5 13 21 23 18 17 23 20 8 4 5 5 7 8 7 7 7 8 8 7 8 9 12 10 11 13 10 5 4 5 5 5 6 9 8 5 7 9 8 8 8 8 9 7 6 6 7 9 9 8 8
2 3 4 5 4 5 4 5 7 7 9 10 7 8 14 14 10 11 11 11 13 15 14 11 9 9 11 12 11 10 10 10 8 6 6 4 5 10 9 14 22 22 18 19 18 8 4 5 7 9 10 10 8 6 7 11 10 11 14 15 14 12 12 11 9 7 7 7 5 8 14 14 10 10 11 9 8 8 8 9 9 8 7 7 7 8 8 8
3 3 5 7 4 4 5 6 9 11 14 13 8 10 15 16 13 10 7 9 13 13 9 7 10 13 14 13 11 9 12 11 5 3 6 5 6 11 13 10 13 22 17 12 12 8 4 5 8 8 9 11 10 9 8 10 11 10 13 16 17 16 15 12 9 7 9 8 6 9 16 17 13 12 12 11 10 10 9 9 8 7 7 6 6 7 8 7
4 4 6 8 6 6 8 11 14 15 16 13 9 10 14 16 15 12 8 8 12 11 7 6 12 15 15 15 11 7 7 7 4 3 5 6 7 6 8 11 5 18 17 10 9 6 3 3 4 4 4 6 8 11 9 7 5 6 8 10 12 15 15 14 11 9 7 8 8 10 13 12 11 12 13 11 9 9 8 8 8 8 7 6 6 6 7 6
5 4 5 6 7 8 8 9 11 11 12 11 9 10 13 14 15 14 9 7 10 9 7 10 15 15 15 17 11 2 4 6 7 6 6 7 6 2 2 7 5 9 15 10 6 4 4 4 2 3 0 4 6 11 11 6 3 6 7 7 7 9 10 10 11 11 8 6 7 12 12 9 9 12 12 9 9 9 9 9 8 8 7 7 5 4 4 4
9 9 9 6 6 7 7 7 8 8 8 8 8 8 11 12 13 12 9 8 11 11 9 11 13 13 15 15 7 4 6 7 8 10 10 7 6 4 1 6 10 5 9 9 5 5 5 3 1 3 1 3 5 8 8 8 8 10 11 8 7 8 7 6 6 7 9 11 9 10 10 8 7 8 8 8 9 10 9 9 8 6 7 7 5 2 2 3
14 11 9 6 6 6 7 7 8 7 6 8 11 12 12 13 14 13 9 6 10 13 12 13 15 13 10 6 6 7 8 8 7 8 9 7 9 8 5 10 14 8 2 2 4 6 6 4 2 3 2 2 5 7 7 3 6 9 9 6 7 7 6 5 4 4 8 13 11 7 7 7 6 8 9 9 9 9 8 7 7 7 7 7 6 4 3 3
Wind_Direction
360 360 359 359 357 355 354 352 352 351 351 351 350 349 348 347 346 345 343 340 339 337 336 336 335 336 336 331 325 317 315 313 305 288 244 254 258 244 242 250 260 263 262 253 258 281 282 271 252 242 246 247 221 225 234 228 231 225 162 142 197 191 154 145 140 162 156 123 122 123 112 110 108 111 133 139 133 140 129 109 117 123 116 115 118 127 126 124
358 358 358 357 356 355 353 352 351 350 350 350 350 349 347 346 345 345 343 340 339 338 339 339 337 339 340 337 328 322 326 317 304 276 257 263 259 242 232 234 246 244 236 240 241 247 253 260 256 238 224 227 222 224 227 219 210 220 173 154 198 119 135 139 123 145 137 122 130 126 117 120 127 139 158 139 125 130 113 103 107 107 108 114 120 125 122 124
357 357 356 356 355 354 353 351 350 350 349 349 349 348 347 346 345 344 342 340 339 338 340 339 336 342 344 340 334 336 336 322 299 265 271 275 254 239 229 226 236 233 231 238 238 242 255 275 280 266 234 230 231 222 218 205 186 206 196 176 124 103 125 130 121 132 135 133 125 108 101 106 128 149 153 124 112 106 105 108 110 114 122 126 124 126 129 129
356 355 354 354 354 352 352 350 349 349 348 348 347 347 346 345 344 343 342 339 338 338 339 339 337 342 349 346 344 351 343 312 262 247 284 291 238 223 217 221 225 224 234 240 248 257 270 284 286 277 252 237 243 232 211 191 175 205 211 150 127 111 120 131 137 151 143 119 106 103 93 86 87 103 118 116 106 97 108 120 124 128 131 130 131 136 139 134
354 354 353 352 352 351 350 348 348 347 347 347 346 346 344 344 343 342 342 338 335 336 336 337 333 337 351 353 350 354 357 316 275 341 338 313 219 202 205 212 213 217 230 237 255 268 271 274 277 279 270 253 251 248 218 192 168 262 45 84 99 100 96 116 132 142 132 111 114 126 108 87 72 69 86 103 116 137 127 126 128 130 132 133 137 142 136 132
353 352 352 351 350 350 348 347 346 345 345 345 345 344 343 343 342 341 341 337 333 333 334 335 328 328 341 356 6 1 21 302 309 331 340 327 191 189 196 200 203 213 225 233 251 265 266 262 264 272 271 260 250 249 237 195 131 76 72 88 93 97 98 112 126 136 139 122 120 117 99 91 90 81 78 86 85 131 126 125 127 128 131 134 141 145 135 137
351 351 350 349 349 348 347 345 344 344 343 344 344 343 341 341 340 340 338 334 330 327 329 331 326 321 322 354 10 352 205 269 278 286 309 321 167 185 189 193 201 205 214 226 238 248 253 256 257 255 254 253 251 242 224 194 122 116 123 115 116 115 122 133 126 119 113 109 110 107 105 107 104 98 101 103 82 102 116 122 124 127 131 135 146 150 140 147
350 349 348 348 348 346 346 344 342 342 341 341 342 341 340 339 339 338 335 331 325 323 327 328 326 317 316 359 336 305 228 253 266 272 280 232 169 182 185 191 200 200 208 220 231 240 243 254 253 252 260 252 260 254 211 182 101 114 99 103 115 113 116 118 110 100 93 96 104 110 113 112 113 109 100 110 103 103 114 121 125 130 133 138 147 144 134 141
349 348 347 347 346 345 344 342 341 339 339 339 340 340 338 337 338 337 334 329 320 320 323 328 327 310 315 355 297 289 258 257 263 254 235 203 178 181 185 191 197 198 207 222 234 245 244 253 249 245 256 257 269 266 164 81 39 102 94 86 107 112 122 128 113 101 96 92 94 101 107 108 118 119 96 97 105 110 117 123 130 133 135 144 143 131 123 133
348 347 346 345 344 344 342 341 339 337 337 336 337 338 336 336 337 336 333 324 316 317 320 337 331 305 332 314 250 265 259 249 238 221 212 196 180 180 184 191 197 196 207 224 230 241 239 249 256 252 251 260 273 238 141 119 128 106 108 125 129 129 144 130 108 101 99 98 101 104 111 114 118 115 104 110 113 118 123 128 136 135 140 148 136 126 133 154
347 346 345 344 343 342 341 340 338 336 335 334 334 335 335 334 334 336 332 319 313 312 319 347 332 305 341 293 252 244 234 183 181 199 198 190 183 184 185 187 199 197 205 224 228 236 240 249 259 264 252 269 277 198 132 140 146 127 128 132 140 146 133 112 107 110 108 111 125 127 127 126 118 112 118 121 116 121 127 134 140 137 144 145 133 134 146 165
346 345 344 343 341 340 340 338 337 335 333 332 331 332 334 333 332 334 329 314 306 303 317 6 13 5 339 283 238 236 235 202 189 201 186 189 190 193 187 182 199 202 206 224 234 235 239 248 256 263 268 290 293 153 155 178 139 120 130 123 155 164 125 123 122 124 126 133 142 136 124 119 117 126 129 120 118 126 131 137 141 139 142 137 135 143 159 170
345 344 342 341 340 339 338 337 336 334 331 330 329 330 332 331 330 331 325 309 292 294 298 45 90 35 7 270 244 249 252 258 280 252 188 183 193 196 190 190 206 210 212 227 239 237 239 247 255 267 274 288 290 194 206 187 121 110 131 126 164 186 139 134 127 135 141 140 147 143 112 113 123 136 140 136 137 140 140 144 145 145 143 136 141 153 172 169
344 343 342 341 340 338 337 336 335 334 330 328 326 327 330 329 327 325 320 301 280 283 262 185 94 77 100 258 270 276 266 262 278 268 195 173 188 191 196 211 221 221 220 231 245 251 257 258 258 269 275 280 274 258 259 157 111 121 147 150 154 186 158 129 130 150 146 150 159 145 103 132 139 143 146 148 151 149 148 150 150 149 140 137 146 158 176 166
342 342 341 340 339 337 336 335 334 333 329 326 324 325 327 326 322 319 311 289 268 258 239 239 194 187 291 273 284 290 254 255 271 257 200 178 188 188 200 217 229 230 225 232 247 259 270 268 259 263 280 287 283 264 270 100 114 129 141 175 155 166 165 124 138 157 136 167 170 128 105 146 145 151 151 152 158 153 152 155 156 154 146 144 153 162 178 171
341 341 339 338 338 336 335 334 333 332 328 325 323 322 326 325 319 314 301 270 256 230 198 252 202 198 281 276 291 287 219 234 250 235 214 202 198 192 195 208 225 232 229 231 240 253 268 274 258 244 267 280 280 261 282 79 136 137 131 179 175 170 170 126 155 153 132 176 164 119 128 152 149 159 156 160 165 156 157 164 161 159 156 155 160 169 177 171
341 340 338 337 336 335 334 333 332 331 327 325 322 321 324 323 315 311 298 249 248 214 205 275 248 190 257 274 298 286 207 206 216 222 228 214 207 199 189 198 218 224 227 231 237 247 262 269 239 243 258 264 261 227 194 154 198 148 132 190 184 166 158 148 178 156 145 183 157 127 136 144 151 160 161 166 165 157 165 169 165 165 162 161 164 170 171 168
340 339 337 336 335 334 333 332 332 330 326 324 322 322 323 322 319 338 67 119 143 196 240 278 291 221 248 254 256 246 218 199 199 222 230 211 210 206 189 192 209 209 218 229 238 240 243 236 195 251 264 258 255 217 176 183 177 145 159 202 164 166 171 165 184 160 158 175 150 132 135 137 148 157 163 170 161 160 173 168 165 165 159 162 163 163 169 170
340 338 336 335 334 333 331 332 332 330 327 323 321 324 323 325 358 106 120 119 130 219 280 241 203 220 265 250 229 231 240 204 188 220 221 199 210 212 192 194 203 202 210 206 215 214 218 227 189 238 254 244 245 237 207 190 172 156 169 187 170 186 192 176 193 178 162 151 144 145 133 139 154 160 165 177 167 160 169 166 161 159 155 162 160 160 171 169
340 337 335 334 333 332 330 330 330 329 327 323 324 330 329 327 11 82 170 210 209 236 264 234 196 228 266 277 260 232 230 199 181 214 208 191 206 212 187 192 199 200 210 201 198 196 202 231 211 216 234 238 240 242 239 210 179 167 172 185 181 185 186 183 196 183 157 141 153 149 137 146 159 163 170 183 175 160 165 169 163 160 159 164 162 165 173 165
338 337 336 334 332 331 329 329 329 327 324 321 322 333 306 298 305 306 299 254 236 232 249 252 229 232 247 261 268 244 217 189 186 202 197 189 202 208 175 183 198 201 210 213 210 190 194 227 226 220 230 240 244 246 250 242 209 186 179 184 184 188 187 182 187 175 156 156 157 141 138 151 159 166 176 183 182 167 166 169 164 166 166 168 171 168 166 159
337 337 335 334 333 330 328 328 326 324 323 318 311 247 260 285 287 292 301 289 275 266 259 260 251 248 249 251 260 253 214 178 198 193 186 186 195 197 164 177 202 200 201 216 221 189 199 224 222 223 231 239 251 253 248 249 250 237 197 184 183 192 189 182 184 167 153 162 154 142 141 152 162 169 174 184 194 175 167 168 164 167 167 171 179 165 160 163
337 336 335 335 333 329 328 328 325 325 330 322 273 254 269 289 293 292 292 292 290 285 270 261 253 252 250 248 256 248 202 175 201 189 182 183 193 194 171 179 204 201 194 209 221 200 198 219 216 221 227 230 243 249 244 245 252 258 236 201 180 189 186 183 181 159 155 168 147 143 138 145 161 171 176 185 195 179 168 168 164 167 168 173 180 165 162 170
337 335 335 334 332 330 329 327 326 331 339 321 282 271 288 305 315 314 303 285 288 280 261 251 247 246 242 241 248 239 187 176 199 188 180 183 196 197 181 185 197 207 201 204 221 228 211 203 215 226 226 227 235 235 236 244 247 256 254 240 180 186 184 165 160 152 153 161 140 131 114 145 168 177 186 189 188 179 167 166 167 169 168 172 176 169 168 170
336 335 334 334 333 330 328 328 330 337 334 316 281 287 318 330 341 344 336 279 275 270 255 240 229 240 238 238 242 220 170 183 199 185 177 188 202 192 187 189 191 209 205 201 216 234 222 199 210 228 228 229 234 227 222 229 254 272 263 258 215 197 181 140 145 145 145 179 156 133 111 238 200 184 188 193 187 183 169 168 172 169 168 173 176 174 172 168
336 335 334 334 333 331 333 335 328 331 327 303 288 317 335 338 341 340 334 262 272 265 240 198 166 211 220 227 225 180 170 196 198 184 174 190 210 205 193 188 181 211 205 200 211 229 223 203 206 227 230 227 233 236 222 212 230 266 251 255 266 289 303 149 154 154 155 195 174 150 148 223 217 201 194 182 179 185 181 178 175 169 171 175 176 175 170 167
334 334 333 332 331 336 337 307 314 324 309 294 314 329 333 333 335 334 342 240 265 233 201 167 149 183 189 195 188 169 179 178 182 194 173 181 208 223 209 188 173 213 210 197 205 210 217 205 202 222 232 226 225 232 229 207 208 253 234 218 232 266 267 186 170 172 163 181 188 167 149 125 196 213 191 161 166 192 202 196 183 173 175 178 178 173 167 167
332 332 333 329 327 332 318 288 305 307 281 307 321 325 328 327 326 329 20 268 275 221 169 161 159 175 175 180 183 186 210 163 172 200 169 172 196 216 218 205 188 208 219 216 202 189 216 217 201 210 226 233 225 220 229 215 200 238 238 215 209 228 247 201 173 184 167 170 206 179 136 98 215 212 173 158 178 203 214 212 202 184 178 178 178 174 167 166
331 331 330 326 323 327 316 283 276 272 303 324 329 328 325 316 312 318 172 269 281 308 150 151 147 169 179 184 183 192 210 187 183 187 159 169 196 214 229 226 210 207 218 234 229 191 208 227 214 206 210 224 240 234 235 218 189 236 255 266 267 233 242 217 165 170 143 161 219 197 161 153 230 202 174 167 195 209 209 208 209 193 182 179 179 178 169 165
330 328 327 326 319 323 337 283 268 283 317 326 330 327 317 306 297 193 234 248 273 287 143 109 130 168 190 192 184 187 200 210 199 177 161 165 195 213 240 247 233 218 217 226 238 228 212 218 223 219 197 196 228 242 240 220 183 219 255 261 276 274 292 60 129 118 87 200 236 218 189 180 186 196 184 183 200 203 197 196 203 199 188 182 181 179 169 166
328 325 323 321 309 308 317 275 275 300 315 313 324 322 308 292 177 223 235 238 282 252 161 164 158 168 190 195 183 181 197 220 206 179 173 163 185 204 222 238 231 231 229 215 227 242 233 215 213 225 200 185 209 232 231 215 189 200 234 227 245 300 352 22 9 59 89 246 242 244 244 212 196 201 199 204 203 193 187 192 198 200 193 184 181 177 168 166
325 322 317 311 301 288 264 258 277 294 292 305 320 318 297 214 208 234 235 261 271 187 173 181 174 177 188 189 187 181 190 222 222 192 176 167 182 198 206 218 204 202 223 214 213 230 241 232 203 211 220 194 200 219 212 204 203 204 222 189 133 278 343 11 342 13 210 251 250 265 268 242 224 196 195 205 206 192 188 190 192 196 192 183 181 178 170 168
324 320 313 306 297 276 262 267 280 287 296 308 312 290 256 238 222 222 234 259 242 193 185 172 175 187 185 179 189 186 185 212 224 202 175 172 184 194 208 222 218 206 204 207 208 206 235 252 218 200 216 208 198 197 181 193 208 202 205 174 136 143 124 161 183 223 257 275 266 255 261 256 260 215 190 198 201 190 184 182 188 194 189 185 187 184 175 171
322 318 314 308 292 273 267 271 272 277 301 306 274 223 231 234 237 239 238 243 249 262 280 224 179 182 187 185 191 192 189 207 219 201 168 172 190 193 203 219 224 225 212 207 213 198 207 238 229 208 189 183 203 204 175 181 198 201 196 181 163 156 159 177 160 168 226 255 250 240 238 223 245 249 193 191 190 172 171 182 187 191 192 190 191 188 178 170
321 320 317 304 286 272 265 262 258 254 249 241 247 213 219 227 235 246 245 246 255 264 272 264 213 178 189 193 195 201 195 205 220 208 171 169 188 196 194 211 223 225 215 207 218 215 212 219 220 219 185 166 196 226 199 185 203 203 184 182 193 186 170 191 190 178 207 237 239 230 222 196 225 268 172 167 163 158 173 185 180 183 197 194 188 190 184 173
324 325 319 293 277 272 264 253 232 206 193 203 224 216 222 233 230 238 247 250 256 261 270 267 224 181 186 185 200 206 194 202 218 209 180 171 182 197 196 201 217 223 222 206 200 203 215 247 203 195 192 178 189 217 216 202 209 185 167 178 207 216 178 164 202 204 210 236 241 232 249 242 75 348 126 144 153 169 175 178 177 183 194 193 187 187 187 182
326 325 310 274 271 263 247 229 185 178 189 193 217 231 225 231 241 248 260 267 273 287 297 290 250 202 189 176 204 205 185 193 209 202 186 178 181 195 198 199 208 222 231 220 224 207 194 260 193 169 197 212 187 207 227 225 214 172 168 169 178 259 235 138 146 222 203 221 232 222 235 223 149 151 161 149 157 176 177 175 184 188 188 189 190 183 184 187
319 311 281 276 278 246 218 195 162 164 182 197 228 247 238 236 244 248 259 277 288 297 299 293 301 283 219 181 191 198 182 180 197 202 195 182 179 187 194 204 201 211 233 226 225 244 197 224 212 172 192 210 180 197 232 241 224 188 173 166 157 225 241 162 129 197 177 199 251 259 251 224 173 156 166 165 165 174 174 171 177 181 179 184 192 191 184 183
309 291 275 286 282 179 184 172 153 161 190 203 227 239 239 245 250 254 266 283 293 299 294 287 289 274 250 210 187 191 182 178 192 202 198 184 180 185 189 203 196 197 224 231 219 246 223 216 223 185 183 182 170 190 218 241 231 199 180 175 169 190 201 176 192 178 160 180 223 274 297 273 227 167 163 170 164 161 157 148 156 165 172 177 182 188 185 177
302 260 283 286 147 150 162 157 151 190 200 215 235 234 242 249 251 258 265 271 278 282 280 284 284 273 268 261 233 205 182 183 196 200 189 179 178 187 187 196 199 191 209 226 222 228 225 207 234 193 178 174 171 192 199 199 203 193 196 189 180 194 172 158 234 187 154 154 170 224 278 282 265 178 156 154 146 147 144 135 141 152 166 177 175 175 177 170
298 280 278 238 133 145 152 153 182 212 210 238 246 243 251 254 256 260 259 261 265 257 257 267 270 270 277 270 259 252 193 187 198 199 184 178 183 194 190 193 201 190 200 221 223 222 220 187 200 190 180 187 181 180 193 209 205 175 184 193 178 180 157 148 278 256 162 153 171 176 187 276 273 163 135 142 141 142 140 134 146 163 163 166 167 168 171 170
279 267 279 319 137 154 154 174 214 204 222 239 243 247 253 256 260 265 264 267 269 261 252 252 257 263 271 278 297 313 287 217 203 200 185 182 190 198 193 194 200 193 193 214 218 220 230 194 189 192 185 193 189 177 183 211 225 187 182 214 202 172 138 143 228 241 209 186 176 149 129 264 271 146 124 132 132 131 133 136 154 178 162 146 153 164 171 173
283 284 287 300 283 200 187 234 223 218 233 239 247 251 252 253 256 260 263 265 267 268 261 255 261 261 257 268 282 284 283 280 240 218 201 192 193 194 192 192 197 198 195 203 209 216 227 203 178 204 187 185 201 191 180 195 219 206 193 205 196 185 182 193 209 199 199 199 169 126 146 237 270 195 132 128 128 131 138 142 141 141 135 127 137 153 167 178
298 287 287 295 284 238 230 243 233 239 243 242 246 248 250 253 253 253 258 260 259 266 267 262 265 263 259 264 261 261 267 273 278 253 225 215 199 192 191 190 194 199 196 187 185 199 218 198 158 160 177 178 205 220 186 188 203 209 216 202 180 182 196 220 241 188 204 205 160 137 181 228 252 180 138 132 132 134 143 152 143 131 137 136 135 146 160 173
294 267 261 283 281 261 240 236 249 256 256 256 251 248 248 249 250 250 254 262 263 268 274 270 274 288 297 288 273 267 271 277 295 303 271 254 215 190 190 189 191 198 195 181 178 179 194 193 168 165 173 177 197 220 199 187 185 190 241 238 191 178 190 212 227 177 232 229 177 146 168 211 195 148 148 149 136 130 141 151 147 136 138 138 139 146 155 165
314 284 277 291 294 284 250 243 253 256 264 272 272 264 254 246 245 244 245 254 259 263 268 270 280 297 291 284 280 270 264 263 262 275 317 315 287 222 204 193 188 195 195 183 179 172 165 187 174 159 173 188 200 205 179 165 170 180 211 242 233 195 189 188 181 196 203 196 206 187 154 161 182 161 163 168 148 143 152 147 134 122 121 135 152 163 168 171
293 287 322 342 329 315 295 256 252 265 272 267 269 279 270 261 256 246 240 249 255 255 261 273 284 287 279 283 293 286 275 266 251 274 338 349 339 330 288 216 189 187 193 187 183 174 137 181 184 166 181 198 211 231 194 172 183 186 191 218 235 227 212 197 194 205 172 149 223 210 157 159 191 186 175 179 170 163 163 153 146 143 143 148 153 160 172 177
287 291 346 360 332 310 325 309 298 300 292 280 265 263 267 266 264 259 260 276 271 254 249 277 278 270 274 282 291 293 285 279 272 333 359 1 353 346 323 282 196 176 178 183 185 177 128 172 187 179 195 206 215 238 220 188 194 198 196 205 213 219 226 220 207 190 156 159 222 209 170 172 189 185 179 183 178 170 164 155 145 134 133 135 133 146 170 191
333 314 343 356 327 297 301 301 300 298 295 293 282 262 260 258 258 262 266 278 280 260 226 251 267 265 269 271 273 292 300 302 329 6 17 11 358 354 327 311 222 170 171 172 176 179 158 168 167 158 208 236 240 244 233 201 199 215 217 213 207 211 220 225 228 221 197 194 197 182 178 183 183 181 187 187 172 158 148 131 116 113 117 123 135 155 176 198
356 328 333 332 306 296 296 299 303 302 298 297 289 270 262 256 253 256 257 269 288 285 258 254 260 260 263 264 265 308 18 11 2 345 358 12 354 346 327 313 290 183 179 172 151 160 196 211 171 119 305 290 267 252 238 212 224 262 256 244 237 233 226 222 230 236 242 242 197 170 177 199 196 185 183 173 146 132 131 130 130 140 143 141 157 181 176 174
334 329 337 320 297 306 311 309 308 301 297 296 291 281 272 269 269 266 261 264 274 285 293 289 283 270 258 262 285 13 19 13 1 342 342 344 319 313 309 299 302 259 191 172 132 136 174 201 147 111 92 300 290 273 244 202 209 241 244 242 256 262 252 231 215 213 224 234 223 186 182 211 212 171 147 140 134 128 132 137 135 135 129 126 137 149 133 141
330 333 339 319 295 305 309 311 310 301 301 314 322 315 289 275 282 282 273 269 275 282 294 308 314 300 266 268 348 1 347 353 2 340 326 310 299 307 306 290 293 295 253 156 115 134 149 138 110 108 114 276 289 294 286 223 202 229 235 240 259 271 287 293 287 274 244 225 213 196 187 192 169 132 115 113 115 111 118 126 117 111 108 110 129 137 139 177